This is the latest recevied weather packets stored in our database for station/object BV3BA-13. If no packets are shown the sender has not sent any weather packets the latest 10 day(s).
| Time | Temp. | Humidity | Pressure | Rain* | Wind** | Luminosity | Snow |
|---|---|---|---|---|---|---|---|
| 1777799223 | 27.78° C | 80% | 1005.5 hPa | 0 mm | - | - | - |
| 1777798623 | 28.33° C | 79% | 1005.6 hPa | 0 mm | - | - | - |
| 1777798024 | 27.78° C | 78% | 1005.5 hPa | 0 mm | - | - | - |
| 1777797426 | 27.78° C | 79% | 1005.4 hPa | 0 mm | - | - | - |
| 1777796823 | 28.33° C | 78% | 1005.4 hPa | 0 mm | - | - | - |
| 1777796223 | 27.78° C | 79% | 1005.5 hPa | 0 mm | - | - | - |
| 1777795623 | 27.78° C | 81% | 1005.6 hPa | 0 mm | - | - | - |
| 1777795024 | 27.78° C | 83% | 1005.7 hPa | 0 mm | - | - | - |
| 1777794424 | 27.22° C | 85% | 1005.8 hPa | 0 mm | - | - | - |
| 1777793824 | 26.67° C | 86% | 1005.9 hPa | 0 mm | - | - | - |
| 1777793223 | 26.67° C | 87% | 1006 hPa | 0 mm | - | - | - |
| 1777792624 | 27.22° C | 86% | 1006.2 hPa | 0 mm | - | - | - |
| 1777792024 | 27.22° C | 86% | 1006.2 hPa | 0 mm | - | - | - |
| 1777791423 | 27.78° C | 84% | 1006.2 hPa | 0 mm | - | - | - |
| 1777790824 | 28.33° C | 83% | 1006.2 hPa | 0 mm | - | - | - |
| 1777790225 | 28.33° C | 84% | 1006.2 hPa | 0 mm | - | - | - |
| 1777789623 | 27.78° C | 84% | 1006.2 hPa | 0 mm | - | - | - |
| 1777789023 | 28.33° C | 82% | 1006.3 hPa | 0 mm | - | - | - |
| 1777788424 | 27.78° C | 83% | 1006.5 hPa | 0 mm | - | - | - |
| 1777787824 | 28.33° C | 82% | 1006.6 hPa | 0 mm | - | - | - |
| 1777787223 | 27.78° C | 84% | 1006.8 hPa | 0 mm | - | - | - |
| 1777786624 | 27.78° C | 85% | 1006.8 hPa | 0 mm | - | - | - |
| 1777786024 | 27.78° C | 85% | 1006.7 hPa | 0 mm | - | - | - |
| 1777785423 | 28.33° C | 84% | 1006.8 hPa | 0 mm | - | - | - |
| 1777784823 | 28.89° C | 81% | 1006.9 hPa | 0 mm | - | - | - |
* Rain latest hour (hover to see other rain measurements)
** Current wind speed in m/s (hover to see current wind gust speed)